| time (UTC) | temp F | wind direction | speed MPH | gust MPH | rain 1hr in | rain 24hr in | rain mn in | humidity % | barometer mb |
| 20260503002842 | 62 | 191 | 3.0 | 3.0 | 0.00 | 0.00 | 0.00 | 12 | 990.7 |
| 20260502234642 | 63 | 193 | 3.0 | 3.0 | 0.00 | 0.00 | 0.00 | 11 | 990.3 |
| 20260502230442 | 64 | 193 | 3.0 | 3.0 | 0.00 | 0.00 | 0.00 | 9 | 990.6 |
| 20260502222243 | 67 | 196 | 2.0 | 3.0 | 0.00 | 0.00 | 0.00 | 6 | 990.7 |
| 20260502214041 | 69 | 196 | 2.0 | 3.0 | 0.00 | 0.00 | 0.00 | 5 | 990.7 |
| 20260502205841 | 70 | 196 | 2.0 | 3.0 | 0.00 | 0.00 | 0.00 | 3 | 990.7 |
| 20260502201643 | 69 | 195 | 2.0 | 3.0 | 0.00 | 0.00 | 0.00 | 3 | 990.7 |
| 20260502193441 | 68 | 197 | 3.0 | 3.0 | 0.00 | 0.00 | 0.00 | 4 | 990.7 |
| 20260502185241 | 72 | 202 | 2.0 | 3.0 | 0.00 | 0.00 | 0.00 | 990.7 | |
| 20260502181041 | 80 | 209 | 2.0 | 2.0 | 0.00 | 0.00 | 0.00 | 990.4 | |
| 20260502160441 | 105 | 190 | 1.0 | 2.0 | 0.00 | 0.00 | 0.00 | 991.6 | |
| 20260502152243 | 107 | 189 | 1.0 | 3.0 | 0.00 | 0.00 | 0.00 | 991.7 | |
| 20260502123441 | 107 | 187 | 1.0 | 2.0 | 0.00 | 0.00 | 0.00 | 994.7 | |
| 20260502115239 | 105 | 181 | 1.0 | 1.0 | 0.00 | 0.00 | 0.00 | 995.1 | |
| 20260502111039 | 105 | 190 | 1.0 | 1.0 | 0.00 | 0.00 | 0.00 | 995.7 | |
| 20260502102839 | 103 | 185 | 1.0 | 1.0 | 0.00 | 0.00 | 0.00 | 995.8 | |
| 20260502090439 | 95 | 180 | 1.0 | 1.0 | 0.00 | 0.00 | 0.00 | 996.7 | |
| 20260502065839 | 84 | 173 | 1.0 | 1.0 | 0.00 | 0.00 | 0.00 | 997.7 | |
| 20260502061639 | 78 | 176 | 1.0 | 2.0 | 0.00 | 0.00 | 0.00 | 997.7 | |
| 20260502053439 | 71 | 197 | 2.0 | 2.0 | 0.00 | 0.00 | 0.00 | 3 | 997.7 |
| 20260502045239 | 62 | 196 | 3.0 | 3.0 | 0.00 | 0.00 | 0.00 | 11 | 997.7 |
| 20260502041039 | 55 | 187 | 3.0 | 3.0 | 0.00 | 0.00 | 0.00 | 14 | 997.8 |
| 20260502032839 | 54 | 187 | 3.0 | 3.0 | 0.00 | 0.00 | 0.00 | 13 | 998.7 |
| 20260502024639 | 55 | 187 | 3.0 | 3.0 | 0.00 | 0.00 | 0.00 | 11 | 998.7 |
| 20260502020440 | 56 | 188 | 3.0 | 3.0 | 0.00 | 0.00 | 0.00 | 10 | 998.7 |
| 20260502012239 | 57 | 188 | 3.0 | 3.0 | 0.00 | 0.00 | 0.00 | 9 | 998.9 |